WXM80 ListenWXM80 Stop

You find our weather info also at:

UK Metoffice

WeatherCloud

Weather Underground

Northeastern Weather Network

AWEKAS

Citizen Weather Observer Program (CWOP)

HAMweather, WeatherForYou, PWS Weather


Weather Underground History page Text

Daily Summary for July 28, 2017 Units:  Metric    English   Both
« Previous Day
Next Day »
Daily Weekly Monthly Yearly Custom
  High: Low: Average:
Temperature: 30.4 °C 19.7 °C 24.5 °C
Dew Point: 23.1 °C 18.7 °C 20.7 °C
Humidity: 97 % 57 % 81 %
Wind Speed: 5.8 km/h 0 km/h 0.5 km/h
Wind Gust: 11.1 km/h - -
Wind:- - SE
Pressure: 1010 hPa 1006.7 hPa -
Precipitation: 0 mm    
Historical Graphs
 
 
Tabular Data for July 28, 2017
Time Temperature Dew Point Pressure Wind Wind Speed Wind Gust Humidity Rainfall Rate (Hourly)
00:02 22.6 °C 21.2 °C 1009.7 hPa Calm   5.6 km/h 92 % 0 mm
00:07 22.6 °C 21.2 °C 1009.7 hPa Calm   1.9 km/h 92 % 0 mm
00:12 22.6 °C 21.2 °C 1009.7 hPa Calm   1.9 km/h 92 % 0 mm
00:17 22.6 °C 21.2 °C 1009.7 hPa SW 2.6 km/h 2.6 km/h 92 % 0 mm
00:22 22.6 °C 21.2 °C 1009.7 hPa SW 1.3 km/h 3.7 km/h 92 % 0 mm
00:27 22.6 °C 21.2 °C 1009.7 hPa Calm     92 % 0 mm
00:32 22.5 °C 21.1 °C 1009.7 hPa Calm     92 % 0 mm
00:37 22.6 °C 21.2 °C 1009.7 hPa Calm   3.7 km/h 92 % 0 mm
00:42 22.6 °C 21.2 °C 1009.7 hPa Calm     92 % 0 mm
00:47 22.5 °C 21.1 °C 1009.7 hPa SW 0.2 km/h 1.9 km/h 92 % 0 mm
00:52 22.5 °C 21.1 °C 1009.7 hPa Calm     92 % 0 mm
00:57 22.5 °C 21.1 °C 1009.7 hPa Calm     92 % 0 mm
01:02 22.5 °C 21.1 °C 1009.7 hPa SW 0.2 km/h   92 % 0 mm
01:07 22.5 °C 21.1 °C 1009.7 hPa SW 1.1 km/h 3.2 km/h 92 % 0 mm
01:12 22.4 °C 21.1 °C 1009.7 hPa Calm   1.9 km/h 92 % 0 mm
01:17 22.4 °C 21.1 °C 1009.7 hPa Calm     92 % 0 mm
01:22 22.4 °C 21.1 °C 1009.7 hPa Calm     92 % 0 mm
01:28 22.4 °C 21 °C 1009.7 hPa Calm     92 % 0 mm
01:33 22.3 °C 20.9 °C 1009.4 hPa Calm     92 % 0 mm
01:38 22.3 °C 20.9 °C 1009.7 hPa Calm     92 % 0 mm
01:43 22.3 °C 20.9 °C 1009.7 hPa Calm     92 % 0 mm
01:48 22.3 °C 20.9 °C 1009.7 hPa Calm     92 % 0 mm
01:53 22.2 °C 20.8 °C 1009.4 hPa Calm     92 % 0 mm
01:58 22.2 °C 20.8 °C 1009.7 hPa Calm     92 % 0 mm
02:03 22.1 °C 20.7 °C 1009.4 hPa Calm     92 % 0 mm
02:08 22 °C 20.7 °C 1009.4 hPa Calm     92 % 0 mm
02:13 21.9 °C 20.6 °C 1009.4 hPa Calm     92 % 0 mm
02:18 21.9 °C 20.6 °C 1009.4 hPa Calm     92 % 0 mm
02:23 21.8 °C 20.5 °C 1009.4 hPa Calm     92 % 0 mm
02:28 21.7 °C 20.4 °C 1009.4 hPa Calm     92 % 0 mm
02:33 21.7 °C 20.3 °C 1009.4 hPa Calm     92 % 0 mm
02:38 21.6 °C 20.2 °C 1009.4 hPa Calm     92 % 0 mm
02:43 21.5 °C 20.2 °C 1009.4 hPa Calm     92 % 0 mm
02:48 21.4 °C 20.1 °C 1009 hPa Calm     92 % 0 mm
02:53 21.3 °C 20 °C 1009.4 hPa Calm     92 % 0 mm
02:58 21.3 °C 19.9 °C 1009 hPa Calm     92 % 0 mm
03:03 21.2 °C 20.1 °C 1009 hPa Calm     93 % 0 mm
03:08 21.2 °C 20 °C 1009 hPa Calm     93 % 0 mm
03:13 21.1 °C 19.9 °C 1009 hPa Calm     93 % 0 mm
03:18 21.1 °C 19.9 °C 1009 hPa Calm     93 % 0 mm
03:23 21 °C 19.8 °C 1009 hPa Calm     93 % 0 mm
03:34 20.8 °C 19.7 °C 1009 hPa Calm     93 % 0 mm
03:39 20.8 °C 19.6 °C 1009 hPa Calm     93 % 0 mm
03:44 20.7 °C 19.6 °C 1009 hPa Calm     93 % 0 mm
03:49 20.7 °C 19.5 °C 1008.7 hPa Calm     93 % 0 mm
03:54 20.6 °C 19.4 °C 1009 hPa Calm     93 % 0 mm
03:59 20.6 °C 19.4 °C 1008.7 hPa Calm     93 % 0 mm
04:04 20.6 °C 19.4 °C 1008.7 hPa Calm     93 % 0 mm
04:09 20.6 °C 19.4 °C 1009 hPa Calm     93 % 0 mm
04:19 20.4 °C 19.4 °C 1009 hPa Calm     94 % 0 mm
04:24 20.4 °C 19.4 °C 1009 hPa Calm     94 % 0 mm
04:29 20.3 °C 19.3 °C 1009 hPa Calm     94 % 0 mm
04:34 20.3 °C 19.2 °C 1009 hPa Calm     93 % 0 mm
04:39 20.3 °C 19.1 °C 1009 hPa Calm     93 % 0 mm
04:44 20.2 °C 19.1 °C 1009 hPa Calm     93 % 0 mm
04:49 20.2 °C 19 °C 1009 hPa Calm     93 % 0 mm
04:54 20.1 °C 19.1 °C 1009 hPa Calm     94 % 0 mm
04:59 20.1 °C 19.1 °C 1009 hPa Calm     94 % 0 mm
05:04 20.1 °C 19.1 °C 1009 hPa Calm     94 % 0 mm
05:09 20 °C 19 °C 1009 hPa Calm     94 % 0 mm
05:14 19.9 °C 18.8 °C 1009 hPa Calm     93 % 0 mm
05:19 19.9 °C 18.9 °C 1009.4 hPa Calm     94 % 0 mm
05:22 19.9 °C 18.9 °C 1009 hPa Calm     94 % 0 mm
05:27 19.9 °C 18.9 °C 1009 hPa Calm     94 % 0 mm
05:32 19.8 °C 18.8 °C 1009 hPa Calm     94 % 0 mm
05:37 19.8 °C 18.8 °C 1009 hPa Calm     94 % 0 mm
05:42 19.8 °C 18.8 °C 1009.4 hPa Calm     94 % 0 mm
05:47 19.8 °C 18.8 °C 1009.4 hPa Calm     94 % 0 mm
05:52 19.7 °C 18.7 °C 1009.4 hPa Calm     94 % 0 mm
05:57 19.7 °C 18.7 °C 1009.4 hPa Calm     94 % 0 mm
06:02 19.7 °C 18.7 °C 1009.4 hPa Calm     94 % 0 mm
06:07 19.7 °C 18.7 °C 1009.4 hPa Calm     94 % 0 mm
06:12 19.7 °C 18.7 °C 1009.4 hPa Calm     94 % 0 mm
06:17 19.7 °C 18.7 °C 1009.4 hPa Calm     94 % 0 mm
06:22 19.7 °C 18.7 °C 1009.4 hPa Calm     94 % 0 mm
06:27 19.7 °C 18.8 °C 1009.4 hPa Calm     95 % 0 mm
06:32 19.7 °C 18.8 °C 1009.4 hPa Calm     95 % 0 mm
06:37 19.7 °C 18.8 °C 1009.4 hPa Calm     95 % 0 mm
06:42 19.8 °C 18.9 °C 1009.4 hPa Calm     95 % 0 mm
06:47 19.8 °C 18.9 °C 1009.4 hPa NNE 0.5 km/h 1.9 km/h 95 % 0 mm
06:57 20.1 °C 19.4 °C 1009.4 hPa NW 0.3 km/h 1.9 km/h 96 % 0 mm
07:02 20.3 °C 19.6 °C 1009.7 hPa Calm     96 % 0 mm
07:07 20.4 °C 19.9 °C 1009.7 hPa NW 1.3 km/h 3.7 km/h 97 % 0 mm
07:12 20.7 °C 20.2 °C 1009.4 hPa NNW 2.1 km/h 5.6 km/h 97 % 0 mm
07:17 20.8 °C 20.3 °C 1009.7 hPa NNW 2.3 km/h 6.4 km/h 97 % 0 mm
07:22 20.9 °C 20.4 °C 1009.4 hPa NE 2.4 km/h 6.4 km/h 97 % 0 mm
07:27 21.1 °C 20.6 °C 1009.4 hPa NNE 3.2 km/h 3.2 km/h 97 % 0 mm
07:32 21.2 °C 20.7 °C 1009.4 hPa North 1.4 km/h 4.8 km/h 97 % 0 mm
07:42 21.4 °C 20.9 °C 1009.4 hPa North 1.9 km/h 3.7 km/h 97 % 0 mm
07:52 21.5 °C 21 °C 1009.4 hPa NE 0.2 km/h 5.6 km/h 97 % 0 mm
07:57 21.6 °C 21.1 °C 1009.4 hPa North 1.4 km/h 1.9 km/h 97 % 0 mm
08:02 21.6 °C 21.1 °C 1009.7 hPa North 1.4 km/h 4.8 km/h 97 % 0 mm
08:07 21.6 °C 21.1 °C 1010 hPa North 1.4 km/h 3.2 km/h 97 % 0 mm
08:12 21.6 °C 21.1 °C 1010 hPa Calm   1.9 km/h 97 % 0 mm
08:17 21.6 °C 21.1 °C 1009.7 hPa North 0.2 km/h 3.7 km/h 97 % 0 mm
08:22 21.6 °C 21.1 °C 1009.7 hPa North 1.1 km/h 5.6 km/h 97 % 0 mm
08:27 21.6 °C 21.1 °C 1009.7 hPa North 3.4 km/h 5.6 km/h 97 % 0 mm
08:33 21.7 °C 21.2 °C 1009.7 hPa NNE 1 km/h 5.6 km/h 97 % 0 mm
08:38 21.8 °C 21.3 °C 1009.7 hPa NNE 0.3 km/h 1.9 km/h 97 % 0 mm
08:43 21.9 °C 21.4 °C 1009.7 hPa NNE 0.2 km/h 1.9 km/h 97 % 0 mm
08:48 22 °C 21.3 °C 1009.7 hPa Calm   1.9 km/h 96 % 0 mm
08:53 22.1 °C 21.4 °C 1009.7 hPa NNE 1.8 km/h 5.6 km/h 96 % 0 mm
08:58 22.1 °C 21.4 °C 1009.7 hPa Calm     96 % 0 mm
09:03 22.2 °C 21.6 °C 1009.7 hPa NNE 0.5 km/h 3.7 km/h 96 % 0 mm
09:08 22.4 °C 21.6 °C 1009.4 hPa NE 0.2 km/h 1.9 km/h 95 % 0 mm
09:13 22.6 °C 21.6 °C 1009.4 hPa Calm   1.9 km/h 94 % 0 mm
09:18 22.7 °C 21.7 °C 1009.4 hPa NE 3.1 km/h 5.6 km/h 94 % 0 mm
09:23 22.8 °C 21.4 °C 1009.4 hPa ENE 5.8 km/h 11.1 km/h 92 % 0 mm
09:28 22.9 °C 21.4 °C 1009.4 hPa North 3.4 km/h 5.6 km/h 91 % 0 mm
09:33 23.1 °C 21.5 °C 1009.4 hPa NE 2.6 km/h 5.6 km/h 91 % 0 mm
09:38 23.1 °C 21.6 °C 1009.4 hPa NE 1.8 km/h 3.7 km/h 91 % 0 mm
09:43 23.2 °C 21.7 °C 1009.4 hPa WNW 0.3 km/h 1.9 km/h 91 % 0 mm
09:48 23.3 °C 21.6 °C 1009.4 hPa NW 2.1 km/h 5.6 km/h 90 % 0 mm
09:53 23.4 °C 21.7 °C 1009.4 hPa ENE 3.5 km/h 5.6 km/h 90 % 0 mm
09:58 23.7 °C 21.9 °C 1009.4 hPa North 3.4 km/h 5.6 km/h 90 % 0 mm
10:03 23.8 °C 21.9 °C 1009.4 hPa NE 1.8 km/h 5.6 km/h 89 % 0 mm
10:08 24.1 °C 22 °C 1009.4 hPa ENE 0.6 km/h 1.9 km/h 88 % 0 mm
10:13 24.4 °C 22.1 °C 1009.4 hPa Calm     87 % 0 mm
10:23 25.3 °C 22.4 °C 1009.4 hPa NE 2.3 km/h 7.4 km/h 84 % 0 mm
10:34 25.8 °C 22.7 °C 1009.4 hPa Calm   1.9 km/h 83 % 0 mm
10:39 26.1 °C 22.6 °C 1009.7 hPa NE 1.3 km/h 3.7 km/h 81 % 0 mm
10:44 26.3 °C 22.6 °C 1009.7 hPa NE 0.8 km/h 5.6 km/h 80 % 0 mm
10:49 26.4 °C 22.7 °C 1009.4 hPa NE 0.2 km/h 1.9 km/h 80 % 0 mm
10:54 26.7 °C 22.8 °C 1009.4 hPa NE 1.3 km/h 3.7 km/h 79 % 0 mm
10:59 26.9 °C 23 °C 1009.4 hPa Calm   1.9 km/h 79 % 0 mm
11:04 27.2 °C 23.1 °C 1009.4 hPa ENE 0.2 km/h 1.9 km/h 78 % 0 mm
11:09 27.4 °C 22.4 °C 1009.4 hPa Calm   1.9 km/h 74 % 0 mm
11:14 27.3 °C 21.6 °C 1009.7 hPa NE 1 km/h 3.7 km/h 71 % 0 mm
11:19 27.3 °C 21.8 °C 1009.7 hPa NE 2.6 km/h 5.6 km/h 72 % 0 mm
11:24 27.3 °C 22.1 °C 1009.7 hPa NE 0.6 km/h 1.9 km/h 73 % 0 mm
11:29 27.4 °C 21.9 °C 1009.4 hPa Calm   1.9 km/h 72 % 0 mm
11:34 27.6 °C 22.3 °C 1009.7 hPa NE 0.2 km/h 1.6 km/h 73 % 0 mm
11:39 27.8 °C 21.8 °C 1009.7 hPa NE 0.8 km/h 1.9 km/h 70 % 0 mm
11:44 27.8 °C 21.8 °C 1009.7 hPa SE 1.1 km/h 3.7 km/h 70 % 0 mm
11:46 27.8 °C 21.8 °C 1009.7 hPa ESE 1.4 km/h 3.2 km/h 70 % 0 mm
11:51 27.9 °C 21.9 °C 1009.7 hPa WSW 0.3 km/h 3.7 km/h 70 % 0 mm
11:56 27.9 °C 21.5 °C 1009.7 hPa NNE 1.9 km/h 5.6 km/h 68 % 0 mm
12:01 27.9 °C 22.2 °C 1009.4 hPa SSE 0.2 km/h 1.9 km/h 71 % 0 mm
12:06 27.9 °C 21.9 °C 1009.4 hPa ENE 0.3 km/h 3.2 km/h 70 % 0 mm
12:12 27.9 °C 21.7 °C 1009.4 hPa ENE 0.2 km/h 1.9 km/h 69 % 0 mm
12:17 27.9 °C 21.7 °C 1009.7 hPa ENE 0.2 km/h 1.9 km/h 69 % 0 mm
12:20 27.8 °C 21.6 °C 1009.4 hPa ENE 0.2 km/h 1.9 km/h 69 % 0 mm
12:25 27.7 °C 21.2 °C 1009.4 hPa NNW 0.3 km/h 1.9 km/h 68 % 0 mm
12:30 27.6 °C 21.4 °C 1009.4 hPa Calm   1.9 km/h 69 % 0 mm
12:35 27.6 °C 21.1 °C 1009.4 hPa Calm   1.9 km/h 68 % 0 mm
12:40 27.5 °C 21.1 °C 1009.4 hPa NNW 0.2 km/h 1.9 km/h 68 % 0 mm
12:45 27.5 °C 21.3 °C 1009.4 hPa NNW 0.2 km/h 1.9 km/h 69 % 0 mm
12:50 27.5 °C 20.8 °C 1009.4 hPa NNW 0.3 km/h 1.9 km/h 67 % 0 mm
12:55 27.5 °C 20.3 °C 1009 hPa NNE 0.3 km/h 1.9 km/h 65 % 0 mm
13:00 27.6 °C 21.2 °C 1009 hPa Calm   1.9 km/h 68 % 0 mm
13:05 27.7 °C 20.6 °C 1009 hPa NE 1.8 km/h 3.7 km/h 65 % 0 mm
13:10 27.8 °C 20.8 °C 1009 hPa ENE 2.7 km/h 5.6 km/h 66 % 0 mm
13:15 27.7 °C 20.8 °C 1008.7 hPa NE 2.6 km/h 5.6 km/h 66 % 0 mm
13:20 27.7 °C 21.2 °C 1008.7 hPa Calm     68 % 0 mm
13:25 27.7 °C 21 °C 1008.7 hPa NE 3.9 km/h 6.4 km/h 67 % 0 mm
13:30 27.6 °C 20.4 °C 1008.7 hPa ENE 5.1 km/h 6.4 km/h 65 % 0 mm
13:35 27.6 °C 20.6 °C 1008.7 hPa NE 0.8 km/h 5.6 km/h 66 % 0 mm
13:40 27.6 °C 20.9 °C 1008.7 hPa NE 0.6 km/h 4.8 km/h 67 % 0 mm
13:50 27.8 °C 21.4 °C 1008.4 hPa North 1.9 km/h 6.4 km/h 68 % 0 mm
13:52 28 °C 21.8 °C 1008.7 hPa North 1.4 km/h 5.6 km/h 69 % 0 mm
13:57 28.3 °C 21.8 °C 1008.7 hPa NE 2.9 km/h 5.6 km/h 68 % 0 mm
14:02 28.6 °C 21.4 °C 1008.4 hPa ENE 1.8 km/h 3.7 km/h 65 % 0 mm
14:07 28.8 °C 21.3 °C 1008.7 hPa NNW 2.6 km/h 5.6 km/h 64 % 0 mm
14:12 28.9 °C 20.9 °C 1008.4 hPa SE 0.8 km/h 3.2 km/h 62 % 0 mm
14:17 29.1 °C 20.8 °C 1008.4 hPa NNE 3.2 km/h 7.4 km/h 61 % 0 mm
14:22 29.3 °C 21.6 °C 1008.4 hPa NNW 0.3 km/h 1.9 km/h 63 % 0 mm
14:27 29.4 °C 20.3 °C 1008.4 hPa NE 2.1 km/h 5.6 km/h 58 % 0 mm
14:32 29.6 °C 21.2 °C 1008.4 hPa NE 4.2 km/h 5.6 km/h 61 % 0 mm
14:37 29.8 °C 21.4 °C 1008.4 hPa North 1.9 km/h 3.7 km/h 61 % 0 mm
14:42 30 °C 21.7 °C 1008.4 hPa ESE 1.4 km/h 5.6 km/h 61 % 0 mm
14:47 30.2 °C 21.8 °C 1008.4 hPa NNE 2.1 km/h 5.6 km/h 61 % 0 mm
14:52 30.3 °C 21.4 °C 1008 hPa NE 1.1 km/h 5.6 km/h 59 % 0 mm
14:53 30.3 °C 21.4 °C 1008 hPa NE 1.4 km/h 5.6 km/h 59 % 0 mm
14:58 30.4 °C 21.8 °C 1008 hPa NNE 0.6 km/h 1.9 km/h 60 % 0 mm
15:03 30.4 °C 20.9 °C 1008 hPa ENE 3.2 km/h 5.6 km/h 57 % 0 mm
15:08 30.3 °C 21.2 °C 1008 hPa NNE 3.5 km/h 8 km/h 58 % 0 mm
15:13 30.3 °C 21.1 °C 1008 hPa North 2.3 km/h 5.6 km/h 58 % 0 mm
15:18 30.2 °C 21.6 °C 1008 hPa ENE 0.6 km/h 3.7 km/h 60 % 0 mm
15:23 29.9 °C 21.3 °C 1008 hPa Calm   5.6 km/h 60 % 0 mm
15:28 29.8 °C 21.4 °C 1008 hPa North 0.8 km/h 3.7 km/h 61 % 0 mm
15:33 29.5 °C 20.7 °C 1008 hPa ENE 1 km/h 3.7 km/h 59 % 0 mm
15:38 29.4 °C 21.4 °C 1008 hPa ENE 0.3 km/h 1.9 km/h 62 % 0 mm
15:43 29.3 °C 21 °C 1008 hPa ENE 0.2 km/h 3.7 km/h 61 % 0 mm
15:48 29.2 °C 20.1 °C 1007.7 hPa NNE 0.8 km/h 3.2 km/h 58 % 0 mm
15:53 29.2 °C 21.1 °C 1007.7 hPa NNE 0.3 km/h 1.9 km/h 62 % 0 mm
15:58 29.2 °C 20.6 °C 1007.7 hPa NE 1 km/h 1.9 km/h 60 % 0 mm
16:03 29.2 °C 20.9 °C 1007.7 hPa NE 0.2 km/h 1.9 km/h 61 % 0 mm
16:08 29.2 °C 20.6 °C 1007.7 hPa Calm   1.9 km/h 60 % 0 mm
16:13 29.2 °C 20.3 °C 1007.7 hPa Calm     59 % 0 mm
16:18 29.1 °C 20.5 °C 1007.7 hPa Calm     60 % 0 mm
16:24 28.9 °C 20.3 °C 1007.3 hPa Calm     60 % 0 mm
16:29 28.8 °C 20.5 °C 1007.3 hPa Calm   1.9 km/h 61 % 0 mm
16:34 28.6 °C 20.3 °C 1007.3 hPa Calm     61 % 0 mm
16:39 28.4 °C 20.4 °C 1007.3 hPa Calm     62 % 0 mm
16:44 28.2 °C 20.5 °C 1007.3 hPa Calm     63 % 0 mm
16:49 28.1 °C 20.4 °C 1007.3 hPa Calm     63 % 0 mm
16:54 28 °C 19.8 °C 1007 hPa Calm     61 % 0 mm
16:59 27.9 °C 19.7 °C 1007 hPa Calm     61 % 0 mm
17:04 27.9 °C 19.9 °C 1006.7 hPa Calm     62 % 0 mm
17:06 27.9 °C 19.9 °C 1006.7 hPa North 1.6 km/h 3.7 km/h 62 % 0 mm
17:11 27.8 °C 20.1 °C 1007 hPa North 0.3 km/h 1.6 km/h 63 % 0 mm
17:16 27.8 °C 20.1 °C 1007 hPa NE 1 km/h 1.9 km/h 63 % 0 mm
17:21 27.7 °C 19.5 °C 1006.7 hPa Calm     61 % 0 mm
17:26 27.8 °C 19.8 °C 1006.7 hPa Calm     62 % 0 mm
17:31 27.8 °C 19.8 °C 1007 hPa Calm     62 % 0 mm
17:36 27.8 °C 20.1 °C 1007 hPa Calm     63 % 0 mm
17:42 27.7 °C 20.1 °C 1007 hPa Calm     63 % 0 mm
17:46 27.7 °C 20 °C 1006.7 hPa Calm     63 % 0 mm
17:52 27.6 °C 19.9 °C 1006.7 hPa Calm   1.9 km/h 63 % 0 mm
17:57 27.6 °C 20.4 °C 1006.7 hPa Calm     65 % 0 mm
18:02 27.5 °C 20.3 °C 1007 hPa Calm     65 % 0 mm
18:07 27.4 °C 20.3 °C 1007 hPa Calm     65 % 0 mm
18:12 27.4 °C 20.5 °C 1007 hPa Calm     66 % 0 mm
18:17 27.4 °C 20.7 °C 1007 hPa Calm     67 % 0 mm
18:22 27.3 °C 20.4 °C 1007 hPa Calm     66 % 0 mm
18:27 27.3 °C 20.8 °C 1006.7 hPa Calm     68 % 0 mm
18:32 27.2 °C 21 °C 1006.7 hPa Calm   1.9 km/h 69 % 0 mm
18:37 27 °C 20.3 °C 1006.7 hPa Calm     67 % 0 mm
18:42 26.9 °C 20.7 °C 1006.7 hPa Calm     69 % 0 mm
18:47 26.8 °C 20.4 °C 1006.7 hPa Calm     68 % 0 mm
18:52 26.7 °C 20.5 °C 1006.7 hPa Calm     69 % 0 mm
18:56 26.6 °C 19.9 °C 1007 hPa Calm     67 % 0 mm
19:01 26.5 °C 20.3 °C 1007 hPa Calm     69 % 0 mm
19:06 26.4 °C 20.4 °C 1007 hPa Calm     70 % 0 mm
19:11 26.2 °C 20.6 °C 1007 hPa Calm     71 % 0 mm
19:16 26.1 °C 20.7 °C 1007 hPa Calm     72 % 0 mm
19:21 25.9 °C 20.3 °C 1007 hPa Calm     71 % 0 mm
19:31 25.7 °C 19.8 °C 1007.3 hPa Calm     70 % 0 mm
19:36 25.7 °C 19.8 °C 1007 hPa Calm   1.6 km/h 70 % 0 mm
19:41 25.6 °C 19.7 °C 1007.3 hPa Calm     70 % 0 mm
19:46 25.5 °C 19.9 °C 1007.3 hPa Calm     71 % 0 mm
19:51 25.4 °C 19.8 °C 1007.7 hPa Calm     71 % 0 mm
19:56 25.4 °C 19.7 °C 1007.3 hPa Calm     71 % 0 mm
20:01 25.3 °C 19.9 °C 1007.7 hPa Calm     72 % 0 mm
20:06 25.2 °C 20 °C 1007.3 hPa Calm     73 % 0 mm
20:11 25.1 °C 20.2 °C 1007.3 hPa Calm     74 % 0 mm
20:13 25.1 °C 20.1 °C 1007.7 hPa Calm     74 % 0 mm
20:18 25 °C 20.3 °C 1007.3 hPa Calm     75 % 0 mm
20:23 24.9 °C 20.4 °C 1007.3 hPa Calm     76 % 0 mm
20:28 24.8 °C 20.4 °C 1007.3 hPa Calm     77 % 0 mm
20:34 24.7 °C 20.6 °C 1007.7 hPa Calm     78 % 0 mm
20:39 24.6 °C 20.5 °C 1007.7 hPa Calm     78 % 0 mm
20:44 24.5 °C 20.6 °C 1007.7 hPa Calm     79 % 0 mm
20:49 24.4 °C 20.8 °C 1007.7 hPa West 0.2 km/h 1.9 km/h 80 % 0 mm
20:54 24.4 °C 20.9 °C 1007.7 hPa Calm     81 % 0 mm
20:59 24.3 °C 20.8 °C 1008 hPa Calm     81 % 0 mm
21:04 24.2 °C 20.8 °C 1007.7 hPa Calm     81 % 0 mm
21:09 24.2 °C 20.9 °C 1008 hPa Calm     82 % 0 mm
21:14 24.1 °C 21.1 °C 1008 hPa Calm     83 % 0 mm
21:19 24.1 °C 21 °C 1008 hPa Calm     83 % 0 mm
21:24 24 °C 20.9 °C 1008 hPa Calm     83 % 0 mm
21:29 23.9 °C 20.9 °C 1007.7 hPa Calm     83 % 0 mm
21:34 23.9 °C 20.8 °C 1007.7 hPa Calm     83 % 0 mm
21:39 23.9 °C 20.8 °C 1007.7 hPa Calm     83 % 0 mm
21:44 23.8 °C 20.8 °C 1007.3 hPa Calm     83 % 0 mm
21:49 23.8 °C 20.7 °C 1007.3 hPa Calm     83 % 0 mm
21:54 23.7 °C 20.8 °C 1007.3 hPa Calm     84 % 0 mm
21:59 23.7 °C 20.8 °C 1007.3 hPa Calm     84 % 0 mm
22:04 23.6 °C 20.9 °C 1007.3 hPa Calm     85 % 0 mm
22:09 23.6 °C 20.9 °C 1007.3 hPa Calm     85 % 0 mm
22:14 23.5 °C 21 °C 1007.3 hPa Calm     86 % 0 mm
22:19 23.4 °C 20.9 °C 1007.3 hPa Calm     86 % 0 mm
22:24 23.4 °C 21.2 °C 1007.3 hPa Calm     87 % 0 mm
22:30 23.4 °C 21.1 °C 1007.7 hPa Calm   1.9 km/h 87 % 0 mm
22:35 23.3 °C 21.1 °C 1007.7 hPa Calm     87 % 0 mm
22:45 23.3 °C 21.4 °C 1007.3 hPa Calm     89 % 0 mm
22:50 23.2 °C 21.3 °C 1007.3 hPa Calm     89 % 0 mm
22:55 23.2 °C 21.3 °C 1007.3 hPa Calm     89 % 0 mm
23:00 23.2 °C 21.3 °C 1007.3 hPa Calm     89 % 0 mm
23:05 23.2 °C 21.3 °C 1007.3 hPa Calm     89 % 0 mm
23:10 23.2 °C 21.3 °C 1007.3 hPa Calm     89 % 0 mm
23:15 23.2 °C 21.3 °C 1007.3 hPa Calm     89 % 0 mm
23:20 23.2 °C 21.4 °C 1007.3 hPa Calm     90 % 0 mm
23:25 23.2 °C 21.3 °C 1007.3 hPa Calm     89 % 0 mm
23:30 23.2 °C 21.3 °C 1007.3 hPa Calm     89 % 0 mm
23:36 23.2 °C 21.3 °C 1007.3 hPa Calm     89 % 0 mm
23:41 23.1 °C 21.2 °C 1007.3 hPa Calm     89 % 0 mm
23:45 23.1 °C 21.4 °C 1007.3 hPa Calm     90 % 0 mm
23:50 23.1 °C 21.3 °C 1007.3 hPa Calm     90 % 0 mm
23:55 23.1 °C 21.3 °C 1007.3 hPa Calm     90 % 0 mm
23:59 23.1 °C 21.3 °C 1007.3 hPa Calm   1.6 km/h 90 % 0 mm
Crab Meadow Weather
Compliments of Weather Underground - 3 mb

Script developed by  Jim McMurry - jmcmurry@mwt.net Adapted for the template by  Wim van der Kuil - Leuven-Template.eu

Weather Terms: Downburst - A strong downdraft from a thunderstorm resulting in an outward burst of damaging winds on or near the ground. Downburst winds are often 50 to 100 mph and in a few cases, 100 to 150 mph. They can do as much damage as a small tornado.